Snowfall_Accumulation
nan nan nan nan nan nan nan nan nan nan nan nan nan nan nan nan nan 0.0 0.0 0.0 0.0 0.4 0.0 0.0 0.0 0.0 0.0 0.0 0.6 0.0 1.3 0.2 0.3 1.3 1.4 1.3 1.0 0.2 0.0 0.0 0.0 0.2 1.5 1.2 1.0 1.5 1.4 0.0 0.0 0.1 0.8 0.0 0.0 0.0
nan nan nan nan nan nan nan nan nan nan nan nan nan nan nan nan nan nan 0.0 0.0 0.0 0.0 0.1 0.0 0.0 0.0 0.0 0.0 0.0 0.0 0.2 0.0 0.2 0.3 0.2 0.0 0.4 0.2 0.1 0.7 0.0 1.8 0.1 0.6 0.1 0.6 0.0 0.0 0.0 0.0 0.0 0.0 0.0 0.0
nan nan nan nan nan nan nan nan nan nan nan nan nan nan nan nan nan nan 0.0 0.0 0.0 0.1 0.0 0.0 0.0 0.0 0.0 0.0 0.0 0.1 0.0 0.0 0.0 0.0 0.3 0.3 0.4 0.2 1.2 0.2 0.1 0.0 0.0 1.2 0.8 0.1 0.0 0.0 0.0 0.0 0.0 0.0 0.0 0.0
nan nan nan nan nan nan nan nan nan nan nan nan nan nan nan nan nan nan 0.0 0.0 0.0 0.0 2.6 0.2 0.0 0.0 0.0 0.0 0.0 0.0 0.0 0.0 0.0 0.0 0.4 1.2 1.4 0.0 0.1 0.1 0.1 0.1 0.0 0.1 0.2 0.0 0.0 0.0 0.0 0.0 0.0 0.0 0.0 0.0
nan nan nan nan nan nan nan nan nan nan nan nan nan nan nan nan nan nan 0.0 0.0 0.0 0.1 1.4 0.2 0.0 0.0 0.0 0.0 0.0 0.0 0.0 0.0 0.0 1.1 2.7 1.9 0.0 0.3 0.0 0.0 0.2 0.0 0.0 0.7 1.5 0.0 0.0 0.0 0.0 0.0 0.0 0.0 0.0 0.0
nan nan nan nan nan nan nan nan nan nan nan nan nan nan nan nan nan 0.0 0.8 0.0 0.0 0.0 1.6 1.6 0.0 0.0 0.0 0.0 0.0 0.0 0.0 0.0 0.0 1.5 1.3 0.6 0.0 0.2 1.4 0.3 0.0 0.0 0.0 0.0 0.3 0.0 0.0 0.0 0.0 0.0 0.0 0.0 0.0 0.0
nan nan nan nan nan nan nan nan nan nan nan nan nan nan nan nan 0.0 0.3 0.2 0.0 nan 0.0 1.5 1.6 0.4 0.0 0.0 0.0 0.0 0.0 0.0 0.0 0.0 0.1 1.0 0.0 0.0 0.0 0.9 0.5 0.0 0.0 0.0 0.0 0.0 0.0 0.0 0.0 0.3 0.0 0.0 0.0 0.0 0.0
nan nan nan nan nan nan nan nan nan nan nan nan nan nan nan nan nan 0.0 0.0 nan nan 0.0 0.1 1.7 0.6 0.1 0.0 0.2 0.5 0.0 0.0 0.1 0.4 0.2 0.2 0.0 0.0 0.1 1.7 0.0 0.0 0.0 0.0 0.0 0.0 0.0 0.0 0.0 0.0 0.0 0.0 0.0 0.0 0.0
nan nan nan nan nan nan nan nan nan nan nan nan nan nan 0.0 0.0 0.2 0.0 nan nan 0.0 1.3 5.6 1.4 0.9 2.4 0.0 0.2 0.1 0.2 0.1 3.7 0.1 0.7 0.1 0.0 0.5 2.5 0.2 0.0 0.0 0.0 0.0 0.0 0.0 0.0 0.0 0.0 0.0 0.0 0.0 0.0 0.0 0.0
nan nan nan nan nan nan nan nan nan nan nan nan 0.0 0.8 11.8 0.2 nan nan 0.0 1.3 1.1 0.8 1.0 1.1 0.3 0.7 0.2 0.4 0.8 0.5 0.6 1.2 2.2 0.8 0.0 1.3 0.8 0.0 0.0 0.0 0.0 0.0 0.0 0.0 0.0 0.0 0.0 0.0 0.0 0.0 0.0 0.0 0.0 0.0
nan nan nan nan nan nan nan nan nan nan nan 0.1 2.6 2.9 0.0 nan 0.0 1.1 7.3 6.5 2.4 2.7 0.4 0.1 0.0 0.5 0.0 3.7 3.1 0.3 2.8 1.1 2.7 0.5 0.8 1.4 0.7 0.2 0.0 0.0 0.0 0.0 0.0 0.0 0.0 0.0 0.0 0.0 0.0 0.0 0.0 0.0 0.0 0.0
nan nan nan nan nan nan nan nan nan 0.0 0.0 0.0 0.0 0.0 0.0 1.6 3.7 3.4 3.2 1.3 1.7 0.4 0.3 0.4 0.3 0.2 0.5 0.2 1.3 2.7 3.1 2.2 2.5 0.4 4.7 1.5 1.1 0.0 0.0 0.0 0.0 0.0 0.0 0.0 0.0 0.0 0.0 0.0 0.0 0.0 0.0 0.0 0.0 0.0
nan nan nan nan nan nan nan nan nan nan nan 0.0 0.9 5.9 7.4 6.9 34.8 2.8 3.5 1.5 3.2 0.6 0.7 0.5 3.3 0.2 0.2 0.0 1.3 1.8 4.5 6.0 0.6 8.2 2.3 1.1 0.1 0.0 0.1 0.0 0.2 0.4 0.7 0.8 0.9 0.5 0.2 0.1 0.1 0.1 0.7 1.1 2.2 3.6
nan nan nan nan nan nan nan nan nan 0.0 0.0 3.0 3.9 37.5 11.6 4.4 2.0 1.4 1.1 1.0 0.7 0.6 0.4 0.3 1.2 0.8 0.5 1.2 1.6 4.9 0.8 0.6 5.2 5.8 1.8 0.8 0.3 0.2 0.1 0.1 0.3 0.7 0.8 0.3 0.6 1.2 1.9 2.4 4.6 5.6 7.7 8.6 7.0 6.2
nan nan nan nan nan nan nan nan nan 0.0 0.4 4.5 3.9 26.4 4.8 2.1 1.5 1.8 1.1 0.9 0.7 0.4 0.4 1.5 2.2 1.7 3.8 4.8 1.2 0.7 4.2 4.2 1.7 2.1 1.5 1.1 0.2 0.1 0.1 0.1 0.3 0.8 2.1 1.9 1.2 2.3 4.6 4.5 2.8 3.7 4.7 3.8 2.1 6.6
nan nan 0.0 nan nan nan nan nan 0.0 0.0 1.2 1.5 1.3 3.4 1.3 4.8 8.8 6.4 4.3 3.7 0.4 0.7 0.7 1.3 2.3 3.6 4.8 3.7 3.4 1.7 0.5 1.7 3.1 1.5 1.2 0.6 0.3 0.3 0.3 0.4 1.0 1.3 1.2 1.6 1.2 1.1 1.9 3.5 2.6 1.8 2.4 2.7 7.2 5.7
nan 0.0 nan nan nan nan nan 0.1 0.2 0.9 1.3 0.8 7.8 2.6 3.7 3.5 7.2 5.2 2.8 1.3 0.3 1.8 5.5 2.0 3.9 0.5 0.5 2.2 0.8 0.7 5.1 2.8 1.9 1.4 1.1 0.2 0.3 0.6 1.6 2.1 4.0 2.4 1.7 1.4 1.3 1.1 1.7 1.7 1.8 0.6 1.2 1.9 1.0 1.4
0.0 0.0 nan nan nan nan 0.2 0.1 1.0 1.0 0.4 1.5 8.1 6.1 3.1 3.5 5.4 3.4 2.0 0.7 1.5 1.8 1.2 2.4 0.5 1.1 5.6 1.9 3.2 2.8 2.0 1.8 1.1 1.6 1.7 0.9 0.6 1.5 1.3 2.0 3.1 2.1 1.6 2.4 2.3 2.5 2.2 2.8 1.0 2.2 0.8 0.9 1.0 1.1
0.0 0.0 nan nan 0.0 0.1 1.0 1.1 0.6 1.7 3.0 1.5 1.7 1.3 1.7 3.6 1.5 1.3 1.9 1.0 1.1 1.0 3.9 3.5 2.4 2.4 4.6 2.7 4.0 3.2 3.0 1.6 2.4 2.8 3.1 2.3 1.8 2.9 3.9 3.6 3.0 2.8 2.8 2.4 1.3 1.9 1.8 1.4 1.2 1.1 1.1 1.0 1.5 1.4
nan nan nan nan nan 0.0 0.0 0.4 0.0 0.1 1.1 1.7 0.7 1.0 1.1 1.7 1.0 3.5 1.9 1.6 2.3 4.5 4.3 3.8 4.6 8.2 5.4 4.5 3.0 3.0 2.8 1.6 1.4 2.2 3.5 3.9 3.3 1.9 2.8 1.8 2.5 1.3 1.8 1.1 1.8 0.6 1.3 1.2 0.9 0.8 0.8 0.7 1.5 2.4
nan nan nan 0.0 0.0 0.0 0.1 0.2 0.0 0.1 0.2 0.6 0.3 0.2 1.6 0.4 0.9 1.7 1.0 0.5 5.2 5.1 5.0 5.8 10.0 7.2 5.2 4.7 2.8 2.3 2.2 1.3 2.1 1.2 1.9 3.5 3.7 1.7 2.1 2.3 1.6 1.4 1.2 2.0 3.6 3.2 1.5 2.1 1.1 0.6 6.1 8.8 5.1 3.1
0.0 nan 0.1 0.1 0.3 0.2 0.6 0.0 0.1 0.1 0.3 0.3 0.4 0.2 1.6 6.7 6.2 2.5 0.2 1.9 2.1 5.1 4.5 5.1 5.4 4.1 3.3 3.3 4.7 1.7 2.4 0.9 0.7 1.0 0.5 0.7 3.0 2.3 3.0 3.1 1.8 3.3 2.5 3.2 1.7 3.1 1.7 0.8 1.1 1.5 4.4 8.2 2.8 3.2
nan 0.1 0.2 0.1 1.0 4.4 10.3 0.1 0.1 0.1 1.0 0.8 0.5 0.7 2.1 2.5 2.3 0.3 3.5 0.8 4.8 3.9 2.9 2.3 2.0 1.8 2.9 2.7 1.5 1.5 1.8 1.0 1.8 2.0 2.1 2.1 1.8 2.2 2.1 2.0 2.1 3.7 3.1 1.7 1.1 2.0 2.6 2.2 2.3 7.1 4.6 5.2 5.8 13.8
nan 0.7 4.2 2.6 2.4 13.4 0.6 4.2 0.2 0.4 0.4 0.9 1.1 2.1 0.3 1.0 0.5 2.7 3.6 4.1 5.5 2.1 2.1 2.3 1.4 1.8 1.4 1.3 2.4 2.8 3.1 1.6 1.5 1.7 2.1 1.4 1.5 1.8 0.9 1.0 1.6 1.6 1.2 1.0 1.1 2.2 2.1 7.7 5.7 3.8 10.6 19.8 23.8 21.3
13.1 20.3 5.9 35.2 2.2 7.7 5.8 4.1 1.7 0.9 4.1 3.2 2.3 2.6 7.4 0.5 5.2 4.0 1.3 4.9 4.6 6.5 5.1 2.7 1.1 1.2 1.9 3.4 3.2 3.2 1.4 1.2 1.4 1.5 1.8 1.1 1.4 2.1 1.5 0.8 1.2 1.2 1.2 6.4 9.3 11.4 12.3 12.5 12.9 12.7 8.0 23.7 8.7 10.9
35.5 12.9 14.9 3.2 8.2 3.7 1.9 6.6 7.5 8.2 3.9 5.2 4.2 1.8 2.0 4.9 5.5 6.3 2.6 7.1 10.0 6.6 18.4 13.8 6.6 2.2 1.8 1.3 2.0 2.0 1.9 1.2 0.9 1.5 2.0 1.1 1.1 3.7 5.6 5.3 5.0 3.5 2.0 5.4 10.0 16.8 12.3 14.4 16.7 8.8 15.8 8.6 8.8 22.0
32.1 15.3 0.6 0.1 0.7 0.5 7.1 5.3 0.8 3.6 6.0 9.0 4.2 6.4 6.8 15.2 11.0 4.7 3.6 3.4 3.1 4.8 2.7 2.3 1.8 1.5 1.6 1.5 1.2 1.5 1.4 1.4 1.7 2.0 2.0 1.4 1.4 1.3 3.2 10.1 6.5 4.5 2.2 4.6 8.4 18.6 19.8 20.3 22.0 15.5 18.7 17.6 21.1 24.4
2.9 1.5 11.6 4.2 7.8 1.3 7.7 5.3 5.2 6.4 3.6 1.5 4.4 9.9 11.2 9.9 6.9 6.3 4.5 4.0 4.8 2.2 2.2 2.1 1.7 1.6 2.1 2.5 3.3 4.1 4.7 4.1 5.1 3.7 2.8 2.3 2.2 4.5 4.8 4.7 4.2 6.9 5.5 12.3 13.4 17.4 14.0 21.1 24.9 24.9 22.9 23.9 27.1 24.1
4.4 1.6 1.9 13.5 5.9 3.9 6.4 7.7 6.7 3.2 1.3 3.0 13.5 7.7 7.1 4.7 11.7 7.3 6.7 5.7 4.1 3.9 5.8 7.3 9.5 10.8 6.3 5.2 7.3 6.1 7.6 10.1 7.9 10.7 12.4 16.2 13.5 11.4 6.6 7.2 8.0 10.7 9.5 10.6 7.6 9.2 11.1 16.4 19.4 22.5 18.5 27.5 25.6 28.4
4.5 1.2 5.1 7.2 10.8 6.2 11.0 7.7 10.8 9.4 1.0 4.0 2.2 2.5 3.5 9.1 13.0 7.5 8.2 7.9 11.0 21.6 29.5 24.0 22.2 20.8 30.0 21.8 19.4 13.6 15.3 18.9 16.6 22.3 24.3 19.2 16.8 14.6 15.3 17.9 17.0 16.0 15.3 27.2 18.6 8.9 8.6 18.6 16.5 28.5 26.0 25.1 26.8 31.0
1.6 5.7 8.8 4.9 9.4 14.1 15.4 17.5 17.0 10.2 10.0 17.0 18.3 19.3 14.9 12.1 14.7 9.3 8.8 12.9 12.3 32.0 33.9 36.9 35.6 35.6 31.7 22.3 31.6 29.1 22.5 28.4 14.9 12.1 11.8 16.8 18.6 22.5 22.9 20.5 20.2 21.8 22.5 21.5 25.9 22.1 23.1 26.6 26.9 26.0 21.1 19.2 22.2 23.0
10.0 16.4 20.8 13.8 14.0 23.2 11.5 28.2 21.5 19.8 24.5 25.4 28.9 24.6 30.4 26.9 17.5 14.5 15.9 23.7 27.5 31.0 9.4 27.7 37.8 21.5 19.8 18.6 26.4 21.8 10.3 14.7 15.2 15.0 14.8 18.7 21.5 23.6 15.6 13.2 26.5 25.5 20.9 23.0 20.8 22.3 17.8 23.9 25.7 28.3 26.2 23.5 22.2 20.8
24.2 18.5 13.8 14.6 25.7 14.2 17.7 22.0 7.4 22.9 19.0 24.3 27.3 25.0 26.5 23.5 16.6 21.4 10.8 22.7 28.7 30.2 25.8 31.6 32.8 36.7 22.3 19.5 18.1 18.9 13.8 18.4 18.0 10.5 9.3 9.3 9.2 10.4 17.7 24.6 28.2 23.2 15.1 21.0 23.8 22.4 19.6 15.2 18.5 19.5 21.1 23.6 22.0 20.6
Water_Equivalent
nan nan nan nan nan nan nan nan nan nan nan nan nan nan nan nan nan 0.00 0.00 0.00 0.00 0.12 0.00 0.00 0.00 0.00 0.00 0.00 0.10 0.00 0.28 0.07 0.10 0.26 0.25 0.22 0.18 0.02 0.00 0.00 0.00 0.04 0.28 0.27 0.19 0.24 0.21 0.00 0.00 0.02 0.22 0.00 0.00 0.00
nan nan nan nan nan nan nan nan nan nan nan nan nan nan nan nan nan nan 0.00 0.00 0.00 0.00 0.01 0.00 0.00 0.00 0.00 0.00 0.00 0.00 0.03 0.00 0.03 0.09 0.06 0.01 0.10 0.09 0.02 0.15 0.00 0.36 0.02 0.15 0.01 0.15 0.00 0.00 0.00 0.00 0.00 0.00 0.00 0.00
nan nan nan nan nan nan nan nan nan nan nan nan nan nan nan nan nan nan 0.00 0.00 0.00 0.03 0.00 0.00 0.00 0.00 0.00 0.00 0.00 0.02 0.00 0.00 0.01 0.00 0.06 0.06 0.07 0.07 0.23 0.05 0.02 0.00 0.00 0.28 0.15 0.03 0.00 0.00 0.00 0.00 0.00 0.00 0.00 0.00
nan nan nan nan nan nan nan nan nan nan nan nan nan nan nan nan nan nan 0.00 0.00 0.00 0.00 0.57 0.04 0.00 0.00 0.00 0.00 0.00 0.00 0.00 0.00 0.00 0.00 0.08 0.25 0.27 0.00 0.03 0.01 0.02 0.02 0.01 0.04 0.04 0.00 0.00 0.00 0.00 0.00 0.00 0.00 0.00 0.00
nan nan nan nan nan nan nan nan nan nan nan nan nan nan nan nan nan nan 0.00 0.00 0.00 0.03 0.30 0.03 0.00 0.00 0.00 0.00 0.00 0.00 0.00 0.00 0.00 0.29 0.66 0.40 0.00 0.07 0.00 0.00 0.06 0.00 0.00 0.20 0.43 0.00 0.00 0.00 0.00 0.00 0.00 0.00 0.00 0.00
nan nan nan nan nan nan nan nan nan nan nan nan nan nan nan nan nan 0.00 0.29 0.00 0.00 0.00 0.36 0.31 0.00 0.00 0.00 0.00 0.00 0.00 0.00 0.00 0.00 0.31 0.34 0.17 0.00 0.04 0.40 0.08 0.00 0.00 0.00 0.00 0.10 0.00 0.00 0.00 0.00 0.00 0.00 0.00 0.00 0.00
nan nan nan nan nan nan nan nan nan nan nan nan nan nan nan nan 0.00 0.10 0.04 0.00 nan 0.00 0.36 0.30 0.09 0.00 0.00 0.00 0.00 0.00 0.00 0.00 0.00 0.03 0.20 0.00 0.00 0.00 0.25 0.15 0.00 0.00 0.00 0.00 0.00 0.00 0.00 0.00 0.09 0.00 0.00 0.00 0.00 0.00
nan nan nan nan nan nan nan nan nan nan nan nan nan nan nan nan nan 0.00 0.00 nan nan 0.00 0.02 0.41 0.18 0.04 0.00 0.09 0.15 0.00 0.00 0.02 0.11 0.05 0.07 0.01 0.00 0.04 0.38 0.00 0.00 0.00 0.00 0.00 0.00 0.00 0.00 0.00 0.00 0.00 0.00 0.00 0.00 0.00
nan nan nan nan nan nan nan nan nan nan nan nan nan nan 0.00 0.00 0.06 0.00 nan nan 0.00 0.37 1.05 0.44 0.27 0.72 0.00 0.06 0.03 0.07 0.01 0.84 0.02 0.20 0.02 0.00 0.13 0.54 0.07 0.00 0.00 0.00 0.00 0.00 0.00 0.00 0.00 0.00 0.00 0.00 0.00 0.00 0.00 0.00
nan nan nan nan nan nan nan nan nan nan nan nan 0.00 0.24 3.33 0.06 nan nan 0.02 0.44 0.31 0.19 0.19 0.24 0.05 0.21 0.05 0.17 0.22 0.16 0.16 0.32 0.52 0.23 0.01 0.29 0.23 0.00 0.00 0.00 0.00 0.00 0.00 0.00 0.00 0.00 0.00 0.00 0.00 0.00 0.00 0.00 0.00 0.00
nan nan nan nan nan nan nan nan nan nan nan 0.03 0.75 0.90 0.00 nan 0.01 0.29 1.49 1.24 0.49 0.50 0.09 0.03 0.00 0.14 0.00 0.78 0.79 0.11 0.80 0.29 0.60 0.14 0.25 0.33 0.17 0.07 0.00 0.00 0.00 0.00 0.00 0.00 0.00 0.00 0.00 0.00 0.00 0.00 0.00 0.00 0.00 0.00
nan nan nan nan nan nan nan nan nan 0.00 0.00 0.00 0.00 0.00 0.01 0.43 0.86 0.65 0.78 0.31 0.28 0.08 0.11 0.13 0.11 0.06 0.15 0.06 0.33 0.64 0.64 0.51 0.37 0.10 1.07 0.38 0.22 0.00 0.00 0.00 0.00 0.00 0.00 0.00 0.00 0.00 0.00 0.00 0.00 0.00 0.00 0.00 0.00 0.00
nan nan nan nan nan nan nan nan nan nan nan 0.00 0.22 1.43 1.64 1.73 5.34 0.82 0.86 0.38 1.12 0.17 0.28 0.18 1.28 0.09 0.08 0.00 0.40 0.54 1.23 1.34 0.15 2.06 0.45 0.24 0.02 0.01 0.02 0.01 0.04 0.06 0.11 0.13 0.13 0.08 0.03 0.02 0.03 0.03 0.12 0.20 0.41 0.59
nan nan nan nan nan nan nan nan nan 0.00 0.02 0.72 0.80 5.69 2.78 1.43 0.49 0.38 0.28 0.29 0.27 0.23 0.15 0.14 0.35 0.26 0.18 0.38 0.53 1.40 0.28 0.20 1.42 1.55 0.41 0.18 0.05 0.03 0.02 0.01 0.05 0.11 0.14 0.06 0.14 0.26 0.37 0.44 0.78 1.06 1.43 1.57 1.19 0.89
nan nan nan nan nan nan nan nan nan 0.00 0.13 0.89 0.72 3.54 1.31 0.62 0.47 0.59 0.44 0.37 0.27 0.16 0.15 0.37 0.45 0.35 0.85 1.29 0.38 0.21 1.16 1.17 0.46 0.52 0.34 0.25 0.03 0.02 0.03 0.03 0.06 0.14 0.42 0.38 0.23 0.40 0.80 0.71 0.43 0.55 0.73 0.61 0.32 1.01
nan nan 0.00 nan nan nan nan nan 0.00 0.01 0.26 0.32 0.23 0.78 0.42 1.43 2.65 2.37 1.68 1.46 0.16 0.26 0.23 0.32 0.45 0.77 1.05 0.81 0.55 0.50 0.12 0.41 0.70 0.35 0.27 0.16 0.06 0.07 0.07 0.08 0.19 0.26 0.24 0.29 0.22 0.19 0.32 0.54 0.43 0.26 0.34 0.39 1.19 0.97
nan 0.02 nan nan nan nan nan 0.03 0.07 0.15 0.30 0.13 2.07 0.73 1.10 1.04 2.01 1.66 0.95 0.46 0.11 0.57 1.74 0.43 0.69 0.09 0.15 0.50 0.13 0.19 1.27 0.62 0.43 0.31 0.25 0.03 0.07 0.11 0.31 0.40 0.74 0.44 0.30 0.24 0.22 0.19 0.26 0.26 0.26 0.08 0.16 0.27 0.14 0.18
0.01 0.00 nan nan nan nan 0.06 0.05 0.21 0.22 0.08 0.40 1.88 1.54 0.87 1.01 1.53 1.10 0.65 0.26 0.42 0.41 0.29 0.42 0.12 0.19 1.37 0.35 0.75 0.58 0.43 0.39 0.26 0.36 0.37 0.20 0.13 0.30 0.26 0.38 0.55 0.36 0.26 0.39 0.36 0.39 0.33 0.42 0.15 0.35 0.11 0.13 0.15 0.15
0.00 0.00 nan nan 0.00 0.03 0.24 0.23 0.11 0.36 0.72 0.41 0.46 0.37 0.47 0.99 0.47 0.40 0.58 0.32 0.31 0.27 0.74 0.66 0.45 0.50 0.95 0.55 0.81 0.67 0.69 0.38 0.47 0.55 0.62 0.45 0.35 0.54 0.70 0.63 0.49 0.44 0.40 0.35 0.20 0.36 0.32 0.20 0.22 0.22 0.22 0.20 0.26 0.26
nan nan nan nan nan 0.02 0.01 0.13 0.01 0.03 0.32 0.43 0.22 0.27 0.29 0.44 0.31 1.24 0.60 0.37 0.45 0.84 0.76 0.68 0.87 1.27 0.96 0.83 0.64 0.62 0.61 0.39 0.30 0.41 0.63 0.71 0.69 0.35 0.50 0.34 0.46 0.24 0.31 0.17 0.32 0.15 0.26 0.23 0.18 0.18 0.16 0.15 0.34 0.49
nan nan nan 0.00 0.00 0.00 0.03 0.07 0.02 0.04 0.08 0.18 0.11 0.06 0.43 0.15 0.30 0.53 0.32 0.12 1.21 0.88 0.83 0.97 1.52 1.13 0.96 0.92 0.58 0.47 0.42 0.26 0.41 0.24 0.35 0.57 0.68 0.34 0.39 0.46 0.33 0.29 0.25 0.36 0.70 0.52 0.32 0.38 0.20 0.15 1.72 2.27 1.32 0.85
0.00 nan 0.03 0.02 0.10 0.06 0.21 0.01 0.03 0.04 0.11 0.11 0.13 0.07 0.50 1.95 1.80 0.76 0.09 0.56 0.40 0.73 0.73 0.80 0.86 0.67 0.54 0.50 0.79 0.29 0.44 0.16 0.11 0.20 0.10 0.14 0.48 0.39 0.49 0.53 0.33 0.59 0.46 0.64 0.35 0.73 0.38 0.17 0.29 0.41 1.21 2.22 0.72 0.80
nan 0.02 0.09 0.04 0.31 1.01 2.16 0.03 0.03 0.03 0.33 0.24 0.14 0.21 0.63 0.64 0.47 0.06 0.87 0.15 0.68 0.68 0.52 0.40 0.33 0.30 0.46 0.41 0.22 0.23 0.29 0.16 0.32 0.35 0.38 0.35 0.32 0.43 0.40 0.36 0.41 0.84 0.63 0.30 0.22 0.42 0.56 0.67 0.63 1.93 1.27 1.33 1.37 3.18
nan 0.22 1.23 0.80 0.61 2.88 0.24 1.24 0.07 0.12 0.13 0.31 0.34 0.54 0.07 0.27 0.14 0.66 0.72 0.73 0.72 0.36 0.35 0.34 0.29 0.32 0.23 0.16 0.34 0.41 0.49 0.27 0.24 0.29 0.37 0.25 0.27 0.28 0.18 0.20 0.33 0.33 0.25 0.20 0.28 0.58 0.57 2.04 1.80 0.91 2.43 4.50 5.42 4.47
1.77 3.22 1.83 4.03 0.72 2.16 1.64 1.25 0.46 0.26 0.95 0.92 0.53 0.68 1.73 0.17 1.08 0.91 0.25 0.72 0.65 0.86 0.68 0.45 0.21 0.22 0.28 0.52 0.46 0.44 0.17 0.19 0.22 0.23 0.30 0.20 0.28 0.39 0.27 0.16 0.22 0.22 0.28 1.55 2.12 2.85 2.89 2.88 2.99 2.83 1.67 5.09 1.62 2.08
4.40 3.62 3.18 1.00 2.20 1.08 0.52 1.39 1.52 1.79 0.90 1.13 1.04 0.48 0.62 1.20 1.07 1.08 0.39 1.03 1.44 0.84 3.16 2.33 1.16 0.36 0.26 0.20 0.28 0.27 0.27 0.20 0.16 0.25 0.30 0.18 0.21 0.76 1.05 0.94 0.84 0.63 0.42 1.21 2.24 3.77 2.70 3.04 3.46 1.71 3.18 1.81 2.44 4.29
3.87 3.51 0.20 0.05 0.18 0.13 1.70 1.47 0.26 0.94 1.20 1.58 0.90 1.39 1.56 2.26 1.88 0.62 0.46 0.45 0.39 0.66 0.41 0.38 0.31 0.24 0.23 0.21 0.18 0.25 0.24 0.26 0.28 0.29 0.31 0.22 0.22 0.22 0.67 1.81 1.06 0.69 0.49 1.14 2.04 4.35 4.28 4.05 4.31 2.82 3.44 3.74 4.08 4.45
0.69 0.41 1.64 1.20 1.92 0.36 1.58 1.10 1.13 1.28 0.77 0.32 0.88 1.61 1.98 1.70 0.92 0.75 0.50 0.53 0.73 0.34 0.33 0.34 0.29 0.24 0.30 0.35 0.45 0.62 0.78 0.72 0.95 0.73 0.54 0.44 0.39 0.83 0.87 0.92 0.85 2.28 1.21 2.72 3.38 3.79 2.93 4.50 4.93 4.86 4.23 4.20 4.57 4.23
0.96 0.49 0.54 1.61 0.99 0.86 1.19 1.47 1.25 0.58 0.25 0.69 2.72 1.31 1.02 0.51 1.34 0.85 0.76 0.72 0.70 0.67 0.83 1.05 1.38 1.87 1.00 0.85 1.19 0.93 1.24 1.53 1.32 1.53 2.09 2.27 2.14 1.75 1.07 1.29 1.45 1.98 1.82 2.07 2.50 2.52 2.45 3.18 3.77 4.27 4.31 4.85 4.60 5.02
0.88 0.41 1.20 1.28 1.23 0.94 2.21 1.52 2.08 1.73 0.18 0.70 0.40 0.36 0.40 0.99 1.35 0.90 1.11 1.05 1.46 3.34 5.01 3.89 3.58 3.44 4.86 3.39 2.85 2.05 2.33 3.07 2.53 3.46 3.76 2.73 2.31 2.13 2.45 3.09 3.04 2.95 2.86 5.44 3.12 1.36 2.43 3.25 3.76 4.76 4.08 3.72 4.08 4.39
0.45 1.58 2.05 1.10 1.69 3.07 3.03 3.53 3.52 1.86 2.00 3.17 3.31 3.52 2.23 1.50 1.77 1.16 1.06 1.61 1.61 5.71 6.15 6.43 6.19 6.45 5.06 3.14 5.16 4.59 3.07 4.79 2.02 1.53 1.51 2.29 2.68 3.57 3.78 3.28 3.44 3.88 4.06 3.75 4.65 3.32 3.08 3.78 4.10 4.11 2.93 2.65 2.69 2.77
2.23 3.63 3.00 1.72 2.50 4.71 2.46 5.75 4.50 3.97 4.91 4.56 5.12 4.36 4.96 4.02 2.24 1.70 1.90 3.18 4.10 4.84 2.79 3.99 6.03 2.74 2.65 2.44 4.10 3.21 3.17 1.90 1.93 1.89 2.01 2.62 3.25 3.74 2.35 1.94 4.54 4.59 3.68 3.98 3.33 3.41 2.75 3.54 3.39 3.79 3.24 2.85 2.57 2.30
5.45 3.92 2.60 2.38 4.84 2.81 3.29 4.29 1.29 3.88 3.32 3.86 4.37 3.93 4.07 3.28 1.95 2.50 1.13 2.89 3.83 4.15 3.34 4.56 4.85 5.78 3.04 2.61 2.31 2.52 3.02 2.21 2.72 3.47 3.06 3.06 3.04 2.90 2.62 3.97 4.80 3.69 2.25 3.13 3.50 3.12 2.72 2.01 2.13 2.41 2.46 2.80 2.53 2.31
SL_Ratio
nan nan nan nan nan nan nan nan nan nan nan nan nan nan nan nan nan nan nan nan nan 3.1 nan nan nan nan nan nan 5.7 5.0 4.6 3.4 3.1 5.1 5.5 5.9 5.3 6.9 5.0 nan nan 5.4 5.5 4.5 5.1 6.1 6.8 nan nan 5.6 3.5 nan nan nan
nan nan nan nan nan nan nan nan nan nan nan nan nan nan nan nan nan nan nan nan nan nan 4.3 nan nan nan nan nan nan nan 5.5 5.0 5.6 3.5 3.3 2.8 3.5 2.6 5.3 4.7 nan 4.9 3.8 4.4 3.8 4.0 nan nan nan nan nan nan nan nan
nan nan nan nan nan nan nan nan nan nan nan nan nan nan nan nan nan nan nan nan nan 2.5 5.0 10.0 nan nan nan nan nan 5.6 5.0 nan 4.7 nan 5.5 5.6 6.1 3.2 5.0 4.6 4.7 nan nan 4.1 5.3 3.8 0.0 nan nan nan nan nan nan nan
nan nan nan nan nan nan nan nan nan nan nan nan nan nan nan nan nan nan nan nan nan nan 4.5 3.9 nan nan nan nan nan nan nan nan nan nan 5.1 5.0 5.2 5.0 4.5 5.9 5.6 5.4 2.6 3.5 4.3 nan nan nan nan nan nan nan nan nan
nan nan nan nan nan nan nan nan nan nan nan nan nan nan nan nan nan nan nan nan nan 4.0 4.6 5.5 nan nan nan nan nan nan nan nan nan 3.9 4.1 4.7 5.0 3.7 nan 6.0 3.4 nan 3.3 3.3 3.4 2.2 nan nan nan nan nan nan nan nan
nan nan nan nan nan nan nan nan nan nan nan nan nan nan nan nan nan nan 2.8 nan nan nan 4.3 5.1 nan nan nan nan nan nan nan nan 0.0 4.7 4.0 3.6 nan 4.4 3.6 3.5 nan nan nan nan 2.9 nan nan nan nan nan nan nan nan nan
nan nan nan nan nan nan nan nan nan nan nan nan nan nan nan nan nan 2.6 4.3 nan nan nan 4.1 5.3 4.1 nan nan nan nan nan nan nan 5.0 4.7 4.7 5.0 nan 5.0 3.5 3.6 nan nan nan nan nan nan 2.9 nan 3.2 nan nan nan nan nan
nan nan nan nan nan nan nan nan nan nan nan nan nan nan nan nan nan nan nan nan nan nan 4.6 4.2 3.4 3.5 nan 2.5 3.3 nan nan 4.8 3.9 3.8 3.6 2.5 nan 3.0 4.4 nan nan nan nan nan nan nan nan nan nan nan nan nan nan nan
nan nan nan nan nan nan nan nan nan nan nan nan nan nan nan nan 3.1 nan nan nan nan 3.5 5.4 3.1 3.2 3.4 nan 3.0 2.5 3.3 5.1 4.4 4.0 3.5 3.4 nan 3.4 4.6 3.4 nan nan nan nan nan nan nan nan nan nan nan nan nan nan nan
nan nan nan nan nan nan nan nan nan nan nan nan nan 3.5 3.6 2.5 nan nan 2.9 2.9 3.4 4.1 5.4 4.5 5.9 3.2 3.6 2.6 3.5 3.3 3.7 3.7 4.3 3.6 4.1 4.5 3.5 nan nan nan nan nan nan nan nan nan nan nan nan nan nan nan nan nan
nan nan nan nan nan nan nan nan nan nan nan 3.1 3.5 3.2 nan nan 3.4 3.9 4.9 5.2 4.9 5.4 4.7 2.8 nan 3.4 5.0 4.7 3.9 3.2 3.5 3.8 4.5 3.5 3.4 4.2 4.1 3.5 nan nan nan nan nan nan nan nan nan nan nan nan nan nan nan nan
nan nan nan nan nan nan nan nan nan nan nan 4.5 5.7 nan 3.0 3.8 4.4 5.2 4.1 4.1 6.2 5.1 2.8 2.7 2.9 3.2 3.1 2.5 3.9 4.2 4.8 4.3 6.7 3.9 4.4 4.0 4.9 nan nan nan nan nan nan nan nan nan nan nan nan nan nan nan nan nan
nan nan nan nan nan nan nan nan nan nan nan nan 4.0 4.1 4.5 4.0 6.5 3.4 4.0 3.9 2.8 3.2 2.6 2.6 2.6 2.5 2.7 0.0 3.2 3.2 3.6 4.5 3.8 4.0 5.2 4.5 4.4 5.2 5.2 5.2 5.9 5.9 6.1 6.3 6.6 6.5 6.3 4.3 4.1 4.6 5.7 5.7 5.4 6.1
nan nan nan nan nan nan nan nan nan nan 2.4 4.1 4.9 6.6 4.2 3.1 4.0 3.6 3.9 3.3 2.6 2.6 2.5 2.5 3.4 3.3 2.6 3.2 3.1 3.5 3.0 3.0 3.7 3.8 4.4 4.6 5.6 5.5 5.4 5.5 6.1 6.2 5.7 5.0 4.5 4.6 5.2 5.5 6.0 5.3 5.4 5.5 5.9 7.0
nan nan nan nan nan nan nan nan nan 2.7 3.1 5.0 5.4 7.5 3.6 3.4 3.2 3.0 2.6 2.5 2.5 2.5 2.5 4.0 4.8 4.7 4.5 3.7 3.2 3.2 3.6 3.6 3.7 4.0 4.4 4.2 4.8 4.5 4.7 4.8 5.5 5.9 5.0 5.2 5.1 5.8 5.7 6.3 6.6 6.7 6.5 6.2 6.5 6.5
nan nan nan nan nan nan nan nan nan 2.3 4.5 4.8 5.9 4.4 3.0 3.3 3.3 2.7 2.6 2.5 2.5 2.7 2.9 4.0 5.0 4.6 4.5 4.6 6.2 3.5 3.7 4.1 4.4 4.2 4.3 4.1 4.8 4.7 4.8 4.8 5.0 5.2 5.2 5.5 5.6 5.8 6.1 6.5 6.1 6.7 7.0 6.9 6.0 5.9
nan 2.5 nan nan nan nan nan 2.5 2.5 5.7 4.2 6.2 3.8 3.5 3.4 3.3 3.6 3.1 3.0 3.0 2.5 3.1 3.2 4.6 5.7 5.0 3.6 4.4 6.0 3.8 4.0 4.6 4.3 4.7 4.5 4.6 5.0 5.0 5.0 5.3 5.4 5.4 5.6 5.7 5.8 6.1 6.5 6.7 6.8 6.9 7.2 7.1 7.2 7.4
2.7 nan nan nan nan nan 2.5 2.5 4.5 4.6 5.6 3.6 4.3 4.0 3.6 3.4 3.5 3.1 3.0 2.8 3.5 4.4 4.2 5.7 3.9 5.7 4.1 5.5 4.3 4.8 4.7 4.5 4.1 4.4 4.5 4.6 4.9 4.9 5.1 5.2 5.7 5.8 6.2 6.3 6.4 6.4 6.5 6.6 7.0 6.2 7.1 7.2 7.2 7.2
nan nan nan nan nan 3.5 4.4 5.0 5.4 4.7 4.1 3.6 3.8 3.5 3.5 3.6 3.2 3.2 3.3 3.2 3.4 3.6 5.3 5.3 5.4 4.8 4.9 4.9 4.9 4.8 4.3 4.2 5.1 5.1 5.1 5.1 5.1 5.4 5.5 5.7 6.1 6.5 6.9 6.7 6.5 5.3 5.7 7.0 5.6 5.1 5.1 5.1 5.6 5.3
nan nan nan nan nan 2.4 5.0 2.9 2.5 2.7 3.6 4.0 3.1 3.6 3.6 3.9 3.1 2.8 3.1 4.4 5.1 5.3 5.6 5.6 5.3 6.5 5.7 5.4 4.7 4.8 4.5 4.2 4.7 5.3 5.6 5.5 4.8 5.5 5.5 5.4 5.4 5.5 5.7 6.5 5.7 4.2 5.2 5.2 5.0 4.8 4.8 4.5 4.3 4.9
nan nan nan nan nan nan 2.6 2.7 2.4 2.5 2.8 3.4 2.9 2.7 3.8 2.6 3.0 3.1 3.2 4.5 4.3 5.8 6.0 6.0 6.6 6.4 5.4 5.1 4.9 5.0 5.2 5.1 5.2 4.8 5.4 6.2 5.4 4.9 5.3 5.0 4.9 4.8 4.9 5.6 5.1 6.0 4.7 5.5 5.2 4.2 3.5 3.9 3.8 3.6
nan nan 2.5 2.6 2.9 2.9 2.9 2.4 2.5 2.6 2.7 2.7 3.1 2.6 3.1 3.4 3.5 3.3 2.6 3.5 5.2 7.0 6.3 6.3 6.3 6.0 6.1 6.5 6.0 6.0 5.4 6.1 5.9 4.9 4.7 5.0 6.3 5.8 6.1 6.0 5.5 5.7 5.3 5.0 4.9 4.2 4.5 4.5 3.9 3.7 3.7 3.7 3.9 4.0
nan 2.6 2.5 2.6 3.2 4.3 4.8 2.9 2.9 2.7 3.1 3.2 3.2 3.2 3.3 3.9 4.8 4.9 4.0 5.2 7.0 5.7 5.5 5.7 6.1 6.0 6.3 6.5 6.9 6.8 6.3 6.5 5.8 5.7 5.5 5.8 5.6 5.2 5.3 5.5 5.0 4.5 4.9 5.7 5.2 4.7 4.7 3.3 3.7 3.7 3.6 3.9 4.2 4.3
nan 3.1 3.4 3.2 4.0 4.7 2.6 3.3 3.0 2.9 2.7 3.0 3.2 3.9 3.7 3.6 3.4 4.1 5.0 5.6 7.6 5.9 6.2 6.8 4.8 5.7 6.2 8.0 7.1 6.9 6.3 5.8 6.2 5.9 5.6 5.6 5.7 6.4 5.0 5.1 5.0 4.8 5.0 5.1 3.9 3.8 3.8 3.8 3.2 4.2 4.4 4.4 4.4 4.8
7.4 6.3 3.2 8.7 3.1 3.6 3.5 3.3 3.6 3.5 4.3 3.5 4.3 3.7 4.3 3.0 4.9 4.4 5.4 6.8 7.0 7.6 7.5 6.0 5.3 5.4 6.7 6.6 6.9 7.2 8.1 6.4 6.2 6.3 6.0 5.2 4.8 5.2 5.5 5.0 5.4 5.5 4.1 4.2 4.4 4.0 4.3 4.3 4.3 4.5 4.8 4.6 5.4 5.2
8.1 3.6 4.7 3.2 3.7 3.4 3.6 4.7 5.0 4.6 4.4 4.6 4.0 3.7 3.2 4.0 5.2 5.8 6.5 6.9 7.0 7.9 5.8 5.9 5.7 6.0 6.9 6.5 7.2 7.4 7.1 6.0 5.4 6.0 6.5 5.9 5.5 4.9 5.3 5.6 6.0 5.6 4.7 4.4 4.5 4.5 4.5 4.8 4.8 5.1 5.0 4.7 3.6 5.1
8.3 4.4 3.2 2.7 3.9 4.0 4.2 3.6 3.3 3.9 5.0 5.7 4.6 4.6 4.4 6.7 5.8 7.7 7.9 7.5 8.0 7.3 6.7 6.3 6.0 6.3 6.8 7.3 6.8 6.0 5.7 5.3 5.9 6.9 6.4 6.1 6.2 6.0 4.8 5.6 6.1 6.4 4.6 4.1 4.1 4.3 4.6 5.0 5.1 5.5 5.4 4.7 5.2 5.5
4.3 3.7 7.1 3.5 4.0 3.8 4.9 4.8 4.6 5.0 4.7 4.7 5.0 6.2 5.7 5.8 7.5 8.3 8.9 7.5 6.5 6.6 6.5 6.0 5.7 6.7 7.2 7.1 7.2 6.5 6.0 5.7 5.4 5.1 5.2 5.3 5.6 5.4 5.5 5.1 4.9 3.0 4.5 4.5 4.0 4.6 4.8 4.7 5.1 5.1 5.4 5.7 5.9 5.7
4.5 3.3 3.6 8.4 6.0 4.5 5.4 5.2 5.4 5.5 5.2 4.4 5.0 5.9 6.9 9.4 8.8 8.6 8.9 7.9 5.9 5.9 7.0 7.0 6.9 5.8 6.3 6.2 6.1 6.5 6.2 6.6 6.0 7.0 6.0 7.2 6.3 6.5 6.2 5.6 5.5 5.4 5.2 5.2 3.0 3.6 4.5 5.2 5.1 5.3 4.3 5.7 5.6 5.7
5.0 3.0 4.3 5.6 8.8 6.6 5.0 5.0 5.2 5.5 5.3 5.7 5.6 6.9 8.7 9.2 9.6 8.3 7.4 7.5 7.5 6.5 5.9 6.2 6.2 6.1 6.2 6.4 6.8 6.6 6.6 6.2 6.6 6.5 6.5 7.0 7.3 6.8 6.2 5.8 5.6 5.4 5.4 5.0 6.0 6.5 3.5 5.7 4.4 6.0 6.4 6.8 6.6 7.1
3.5 3.6 4.3 4.4 5.6 4.6 5.1 5.0 4.8 5.5 5.0 5.4 5.5 5.5 6.7 8.1 8.3 8.1 8.3 8.0 7.7 5.6 5.5 5.7 5.7 5.5 6.3 7.1 6.1 6.3 7.3 5.9 7.4 7.9 7.8 7.3 6.9 6.3 6.0 6.2 5.9 5.6 5.5 5.7 5.6 6.6 7.5 7.0 6.6 6.3 7.2 7.2 8.3 8.3
4.5 4.5 6.9 8.0 5.6 4.9 4.7 4.9 4.8 5.0 5.0 5.6 5.6 5.6 6.1 6.7 7.8 8.5 8.4 7.4 6.7 6.4 3.4 6.9 6.3 7.9 7.5 7.6 6.4 6.8 3.2 7.8 7.9 7.9 7.4 7.1 6.6 6.3 6.7 6.8 5.9 5.5 5.7 5.8 6.2 6.5 6.5 6.8 7.6 7.5 8.1 8.2 8.7 9.0
4.4 4.7 5.3 6.1 5.3 5.1 5.4 5.1 5.8 5.9 5.7 6.3 6.2 6.4 6.5 7.2 8.5 8.6 9.6 7.8 7.5 7.3 7.7 6.9 6.8 6.4 7.4 7.5 7.8 7.5 4.6 8.3 6.6 3.0 3.0 3.0 3.0 3.6 6.8 6.2 5.9 6.3 6.7 6.7 6.8 7.2 7.2 7.6 8.7 8.1 8.6 8.4 8.7 8.9